When you browse on this site, cookies collect data to enhance your experience and personalize the content and advertising you see.
Visit our Privacy Policy to learn more. By continuing to use the site, you agree to this use of cookies and data.
  • In Austria
  • List of Countries
  • For 7 days
  • Water Temperature
  • Satellite Maps
  • Weather Map
  • News
  • Weather Widgets
  • user-avatar
    Login

    Hourly Weather Batumi

    Today, 18 November, Sunday

    Time Temperature Precipitation Wind Pressure Humidity
    00:00 +8°C° 0 mm 2 mps 772 mmHg 73%
    01:00 +7°C° 0 mm 2 mps 772 mmHg 71%
    02:00 +7°C° 0 mm 2 mps 771 mmHg 69%
    03:00 +7°C° 0 mm 2 mps 771 mmHg 68%
    04:00 +7°C° 0 mm 2 mps 771 mmHg 67%
    05:00 +7°C° 0 mm 2 mps 771 mmHg 65%
    06:00 +7°C° 0 mm 2 mps 770 mmHg 64%
    07:00 +8°C° 0 mm 2 mps 770 mmHg 64%
    08:00 +10°C° 0 mm 2 mps 770 mmHg 63%
    09:00 +12°C° 0 mm 2 mps 769 mmHg 62%
    10:00 +13°C° 0 mm 2 mps 769 mmHg 60%
    11:00 +14°C° 0 mm 1 mps 768 mmHg 57%
    12:00 +15°C° 0 mm 1 mps 768 mmHg 55%
    13:00 +15°C° 0 mm 1 mps 767 mmHg 57%
    14:00 +15°C° 0 mm 1 mps 767 mmHg 58%
    15:00 +15°C° 0 mm 2 mps 767 mmHg 60%
    16:00 +13°C° 0 mm 2 mps 767 mmHg 63%
    17:00 +12°C° 0 mm 2 mps 768 mmHg 65%
    18:00 +9°C° 0 mm 3 mps 768 mmHg 68%
    19:00 +9°C° 0 mm 3 mps 768 mmHg 67%
    20:00 +9°C° 0 mm 3 mps 768 mmHg 65%
    21:00 +9°C° 0 mm 3 mps 768 mmHg 64%
    22:00 +9°C° 0 mm 3 mps 768 mmHg 63%
    23:00 +8°C° 0 mm 4 mps 768 mmHg 62%

    Tomorrow, 19 November, Monday

    Time Temperature Precipitation Wind Pressure Humidity
    00:00 +8°C° 0 mm 4 mps 768 mmHg 61%
    01:00 +8°C° 0 mm 4 mps 767 mmHg 61%
    02:00 +8°C° 0 mm 4 mps 767 mmHg 61%
    03:00 +8°C° 0 mm 4 mps 767 mmHg 60%
    04:00 +8°C° 0 mm 4 mps 767 mmHg 61%
    05:00 +8°C° 0 mm 4 mps 766 mmHg 61%
    06:00 +8°C° 0 mm 4 mps 766 mmHg 61%
    07:00 +11°C° 0 mm 4 mps 766 mmHg 61%
    08:00 +12°C° 0 mm 4 mps 766 mmHg 61%
    09:00 +13°C° 0 mm 4 mps 766 mmHg 61%
    10:00 +15°C° 0 mm 4 mps 765 mmHg 62%
    11:00 +17°C° 0 mm 4 mps 764 mmHg 63%
    12:00 +19°C° 0 mm 3 mps 764 mmHg 63%
    13:00 +19°C° 0 mm 3 mps 764 mmHg 64%
    14:00 +19°C° 0 mm 3 mps 763 mmHg 64%
    15:00 +19°C° 0 mm 3 mps 763 mmHg 64%
    16:00 +18°C° 0 mm 3 mps 763 mmHg 64%
    17:00 +15°C° 0 mm 4 mps 764 mmHg 65%
    18:00 +14°C° 0 mm 4 mps 764 mmHg 65%
    19:00 +14°C° 0 mm 4 mps 764 mmHg 64%
    20:00 +14°C° 0 mm 4 mps 765 mmHg 63%
    21:00 +13°C° 0 mm 4 mps 765 mmHg 62%
    22:00 +13°C° 0 mm 4 mps 765 mmHg 62%
    23:00 +13°C° 0 mm 4 mps 765 mmHg 62%

    Day after tomorrow, 20 November, Tuesday

    Time Temperature Precipitation Wind Pressure Humidity
    00:00 +13°C° 0 mm 4 mps 765 mmHg 61%
    01:00 +13°C° 0 mm 4 mps 765 mmHg 62%
    02:00 +13°C° 0 mm 4 mps 765 mmHg 62%
    03:00 +13°C° 0 mm 4 mps 765 mmHg 62%
    04:00 +13°C° 0 mm 4 mps 765 mmHg 62%
    05:00 +13°C° 0 mm 3 mps 766 mmHg 62%
    06:00 +13°C° 0 mm 3 mps 766 mmHg 62%
    07:00 +14°C° 0 mm 3 mps 766 mmHg 64%
    08:00 +15°C° 0 mm 2 mps 766 mmHg 65%
    09:00 +16°C° 0 mm 2 mps 767 mmHg 66%
    10:00 +17°C° 0.1 mm 2 mps 766 mmHg 68%
    11:00 +17°C° 0.1 mm 2 mps 766 mmHg 69%
    12:00 +18°C° 0.1 mm 2 mps 766 mmHg 70%
    13:00 +18°C° 0.4 mm 2 mps 766 mmHg 73%
    14:00 +17°C° 0.4 mm 3 mps 766 mmHg 76%
    15:00 +17°C° 0.4 mm 3 mps 766 mmHg 78%
    16:00 +16°C° 0.5 mm 3 mps 766 mmHg 82%
    17:00 +16°C° 0.5 mm 2 mps 767 mmHg 86%
    18:00 +15°C° 0.5 mm 2 mps 767 mmHg 89%
    19:00 +15°C° 0.2 mm 2 mps 767 mmHg 88%
    20:00 +15°C° 0.2 mm 2 mps 768 mmHg 87%
    21:00 +14°C° 0.2 mm 2 mps 768 mmHg 86%
    22:00 +14°C° 0.2 mm 2 mps 768 mmHg 85%
    23:00 +14°C° 0.2 mm 2 mps 768 mmHg 83%

    21 November, Wednesday

    Time Temperature Precipitation Wind Pressure Humidity
    00:00 +13°C° 0.2 mm 2 mps 768 mmHg 81%
    01:00 +13°C° 0 mm 2 mps 767 mmHg 80%
    02:00 +13°C° 0 mm 2 mps 767 mmHg 78%
    03:00 +12°C° 0 mm 2 mps 767 mmHg 76%
    04:00 +12°C° 0 mm 2 mps 767 mmHg 75%
    05:00 +12°C° 0 mm 2 mps 767 mmHg 73%
    06:00 +11°C° 0 mm 3 mps 766 mmHg 72%
    07:00 +13°C° 0 mm 2 mps 766 mmHg 72%
    08:00 +14°C° 0 mm 2 mps 766 mmHg 72%
    09:00 +15°C° 0 mm 2 mps 766 mmHg 72%
    10:00 +16°C° 0 mm 2 mps 765 mmHg 71%
    11:00 +17°C° 0 mm 2 mps 764 mmHg 69%
    12:00 +18°C° 0 mm 2 mps 763 mmHg 67%
    13:00 +18°C° 0.1 mm 2 mps 763 mmHg 68%
    14:00 +18°C° 0.1 mm 2 mps 762 mmHg 68%
    15:00 +18°C° 0.1 mm 2 mps 762 mmHg 69%
    16:00 +17°C° 0.1 mm 2 mps 762 mmHg 70%
    17:00 +16°C° 0.1 mm 3 mps 762 mmHg 72%
    18:00 +14°C° 0.1 mm 3 mps 762 mmHg 73%
    19:00 +14°C° 0 mm 3 mps 762 mmHg 73%
    20:00 +14°C° 0 mm 3 mps 762 mmHg 72%
    21:00 +14°C° 0 mm 3 mps 762 mmHg 72%
    22:00 +14°C° 0 mm 3 mps 762 mmHg 72%
    23:00 +14°C° 0 mm 3 mps 761 mmHg 72%

    22 November, Thursday

    Time Temperature Precipitation Wind Pressure Humidity
    00:00 +14°C° 0 mm 3 mps 761 mmHg 72%
    01:00 +14°C° 0.2 mm 3 mps 761 mmHg 74%
    02:00 +14°C° 0.2 mm 3 mps 761 mmHg 75%
    03:00 +14°C° 0.2 mm 3 mps 760 mmHg 76%
    04:00 +15°C° 0.5 mm 2 mps 760 mmHg 78%
    05:00 +15°C° 0.5 mm 2 mps 760 mmHg 79%
    06:00 +14°C° 0.5 mm 2 mps 760 mmHg 80%
    07:00 +15°C° 0.5 mm 2 mps 760 mmHg 81%
    08:00 +15°C° 0.5 mm 2 mps 760 mmHg 81%
    09:00 +15°C° 0.5 mm 2 mps 760 mmHg 81%
    10:00 +16°C° 0.5 mm 2 mps 760 mmHg 81%
    11:00 +16°C° 0.5 mm 2 mps 759 mmHg 80%
    12:00 +17°C° 0.5 mm 3 mps 759 mmHg 80%
    13:00 +17°C° 0.3 mm 2 mps 759 mmHg 80%
    14:00 +17°C° 0.3 mm 2 mps 759 mmHg 80%
    15:00 +17°C° 0.3 mm 2 mps 759 mmHg 80%
    16:00 +16°C° 0.4 mm 2 mps 759 mmHg 81%
    17:00 +15°C° 0.4 mm 2 mps 759 mmHg 83%
    18:00 +15°C° 0.4 mm 2 mps 760 mmHg 85%
    19:00 +14°C° 0.2 mm 2 mps 760 mmHg 85%
    20:00 +14°C° 0.2 mm 2 mps 760 mmHg 85%
    21:00 +13°C° 0.2 mm 3 mps 760 mmHg 85%
    22:00 +13°C° 0.6 mm 3 mps 760 mmHg 86%
    23:00 +13°C° 0.6 mm 4 mps 760 mmHg 87%

    23 November, Friday

    Time Temperature Precipitation Wind Pressure Humidity
    00:00 +13°C° 0.6 mm 4 mps 760 mmHg 87%
    01:00 +13°C° 1.3 mm 4 mps 760 mmHg 88%
    02:00 +13°C° 1.3 mm 4 mps 760 mmHg 89%
    03:00 +13°C° 1.3 mm 5 mps 760 mmHg 90%
    04:00 +13°C° 1.7 mm 4 mps 760 mmHg 90%
    05:00 +13°C° 1.7 mm 4 mps 761 mmHg 91%
    06:00 +13°C° 1.7 mm 3 mps 761 mmHg 91%
    07:00 +13°C° 1.6 mm 3 mps 761 mmHg 91%
    08:00 +13°C° 1.6 mm 3 mps 762 mmHg 92%
    09:00 +13°C° 1.6 mm 4 mps 762 mmHg 92%
    10:00 +13°C° 2 mm 4 mps 762 mmHg 92%
    11:00 +13°C° 2 mm 5 mps 762 mmHg 92%
    12:00 +13°C° 2 mm 6 mps 762 mmHg 92%
    13:00 +13°C° 1 mm 6 mps 763 mmHg 92%
    14:00 +13°C° 1 mm 6 mps 763 mmHg 92%
    15:00 +11°C° 1 mm 6 mps 763 mmHg 92%
    16:00 +12°C° 0.4 mm 5 mps 764 mmHg 93%
    17:00 +12°C° 0.4 mm 5 mps 765 mmHg 93%
    18:00 +11°C° 0.4 mm 4 mps 765 mmHg 93%
    19:00 +11°C° 0.3 mm 4 mps 766 mmHg 93%
    20:00 +11°C° 0.3 mm 4 mps 766 mmHg 93%
    21:00 +11°C° 0.3 mm 4 mps 767 mmHg 93%
    22:00 +11°C° 0.3 mm 3 mps 767 mmHg 93%
    23:00 +10°C° 0.3 mm 3 mps 768 mmHg 94%
    Show more